This is the latest recevied weather packets stored in our database for station/object DH2PG-6. If no packets are shown the sender has not sent any weather packets the latest 10 day(s).
| Time | Temp. | Humidity | Pressure | Rain* | Wind** | Luminosity | Snow |
|---|---|---|---|---|---|---|---|
| 1778154786 | 12.78° C | 70% | 1011.6 hPa | 0 mm | - | - | - |
| 1778154486 | 13.33° C | 70% | 1011.5 hPa | 0 mm | - | - | - |
| 1778154185 | 13.33° C | 70% | 1011.5 hPa | 0 mm | - | - | - |
| 1778153585 | 12.78° C | 71% | 1011.4 hPa | 0 mm | - | - | - |
| 1778152984 | 12.78° C | 71% | 1011.4 hPa | 0 mm | - | - | - |
| 1778152684 | 12.78° C | 73% | 1011.4 hPa | 0 mm | - | - | - |
| 1778151783 | 12.22° C | 74% | 1011.6 hPa | 0 mm | - | - | - |
| 1778151483 | 12.22° C | 75% | 1011.6 hPa | 0 mm | - | - | - |
| 1778151183 | 11.67° C | 74% | 1011.4 hPa | 0 mm | - | - | - |
| 1778150882 | 12.22° C | 74% | 1011.5 hPa | 0 mm | - | - | - |
| 1778150582 | 12.22° C | 74% | 1011.4 hPa | 0 mm | - | - | - |
| 1778150282 | 12.22° C | 74% | 1011.5 hPa | 0 mm | - | - | - |
| 1778149981 | 12.22° C | 76% | 1011.4 hPa | 0 mm | - | - | - |
| 1778149681 | 12.22° C | 76% | 1011.4 hPa | 0 mm | - | - | - |
| 1778149381 | 12.22° C | 74% | 1011.4 hPa | 0 mm | - | - | - |
| 1778149081 | 12.22° C | 74% | 1011.4 hPa | 0 mm | - | - | - |
| 1778148780 | 12.22° C | 74% | 1011.4 hPa | 0 mm | - | - | - |
| 1778148180 | 12.22° C | 77% | 1011.3 hPa | 0 mm | - | - | - |
| 1778147880 | 12.22° C | 77% | 1011.3 hPa | 0 mm | - | - | - |
| 1778147579 | 11.67° C | 77% | 1011.3 hPa | 0 mm | - | - | - |
| 1778147279 | 11.67° C | 78% | 1011.4 hPa | 0 mm | - | - | - |
| 1778146678 | 11.11° C | 79% | 1011.3 hPa | 0 mm | - | - | - |
| 1778146378 | 11.11° C | 80% | 1011.2 hPa | 0 mm | - | - | - |
| 1778146078 | 10.56° C | 81% | 1011.1 hPa | 0 mm | - | - | - |
| 1778145778 | 10° C | 81% | 1011 hPa | 0 mm | - | - | - |
* Rain latest hour (hover to see other rain measurements)
** Current wind speed in m/s (hover to see current wind gust speed)